THOR ABLESTAR DEB, 2432

Orbit data source: Space-Track

THOR ABLESTAR DEB, 2432 is space debris in LEO originally from a launch on Thu, 05 Dec 1963 UTC launched from the Air Force Western Test Range (AFWTR). Debris objects in space refer to the collection of defunct objects orbiting the Earth. Examples of debris include non-operational satellites, rocket bodies, and fragments generated from explosions, collisions, or faulty payload assembly.

Loading next visibility...
Identifier
2432, 1963-049G
Orbit
LEO
Last TLE update
10 hours ago
Origin
Manufacturer
Unknown
Mission
Spacecraft
Bus & Motor
Unknown
Mass
Unknown
Launch date (UTC)
1963-12-05 (62 years ago)
Launch vehicle
Unknown
Launch site
Air Force Western Test Range (AFWTR)
Object type
Payload
Rocket body
Debris
Shape & HBR
Unknown
Radar Cross Section
Medium (>0.1 m² and <1 m²)

Expand to show TLE details & history

TLE from 10 hours ago
0 THOR ABLESTAR DEB
1 02432U 63049G   25186.61106502  .00000071  00000-0  99313-4 0  9993
2 02432  89.9183  73.5040 0034938 149.8746 277.9705 13.48191356 26002
Epoch: 2025-07-05T14:39Z
TLE epoch observation values (Epoch: 2025-07-05T14:39:56.017Z)
Latitude
67.52444°
Longitude
-70.12956°
Altitude
1,087.167 km
Speed
7.316 km/s
True Right ascension
04h 54m 48s
True Declination
67° 24' 29"
Sunlit
Object was in daylight at epoch
Visualization orbit readout
Latitude
-44.74583°
Longitude
109.75122°
Altitude
1,089.743 km
Speed
7.309 km/s
Apparent Right ascension
20h 22m 21s
Apparent Declination
-58° 00' 13"
Sunlit
Object is in full shadow
Visualization observer readout
Local Sidereal Time
12:17:11
Azimuth
136.303° SSE
Elevation
-49.049°
Doppler factor
1
Orbital elements
Apogee altitude
1,102.016 km
Perigee altitude
1,049.93 km
Semi-major axis
7,454.11 km
Eccentricity
0.00349
Inclination
89.9183°
RAAN
73.504°
Arg. of periapsis
149.8746°
True anomaly
Unknown
Mean anomaly
277.9705°
Eccentric anomaly
Unknown
Mean motion
3.37248 °/min
Orbital period
106.75 mins
BSTAR
0.000099313
Loading maneuver chart data...
Loading SW <> Apogee altitude chart data...
Loading historical data...
Loading historical data...
Loading historical data...
Loading historical data...
Loading historical data...
Loading historical data...
Loading historical data...

THOR ABLESTAR DEB Visibility forecast

Observer location: undefined°, undefined°

Span
Click to sort rows by Start time (UTC) header in descending order
Start Az.
Max El. time (UTC)
Max El. Az.
Max El.
End time (UTC)
End Az.
8 mins2025-07-06 03:24:41.334Z34.975° NE2025-07-06 03:28:41.334Z73.257° E18.128°2025-07-06 03:32:41.334Z115.563° SE
11 mins2025-07-06 05:11:41.334Z352.154° N2025-07-06 05:16:41.334Z256.682° W41.725°2025-07-06 05:22:41.334Z196.642° SSW
7 mins2025-07-06 15:25:41.334Z106.133° ESE2025-07-06 15:28:41.334Z74.636° E19.123°2025-07-06 15:32:41.334Z33.867° NE
11 mins2025-07-06 17:09:41.334Z191.375° SSW2025-07-06 17:14:41.334Z263.216° W42.182°2025-07-06 17:20:41.334Z350.569° N
|